Weather History for Dallas/Ft Worth, TX

Change the Weather History Date:

Friday, May 24, 2013

  Actual Average Record
Temperature  
Mean Temperature 76 °F 76 °F  
Max Temperature 84 °F 86 °F 96 °F (1996)
Min Temperature 68 °F 67 °F 54 °F (1940)
Degree Days  
Heating Degree Days 0 0  
Month to date heating degree days 38 6  
Since 1 July heating degree days 2045 2282  
Cooling Degree Days 11 11  
Month to date cooling degree days 171 198  
Year to date cooling degree days 288 336  
Growing Degree Days 26 (Base 50)    
Moisture  
Dew Point 68 °F    
Average Humidity 75    
Maximum Humidity 87    
Minimum Humidity 63    
Precipitation  
Precipitation 0.21 in 0.16 in 3.28 in (1908)
Month to date precipitation 2.69 3.81  
Year to date precipitation 12.68 15.16  
Sea Level Pressure  
Sea Level Pressure 30.07 in    
Wind  
Wind Speed 9 mph (SSE)    
Max Wind Speed 30 mph    
Max Gust Speed 40 mph    
Visibility 9 miles    
Events Rain , Thunderstorm    
T = Trace of Precipitation, MM = Missing Value Source: NWS Daily Summary

Daily Weather History Graph

Daily Weather History Graph

Search for Another Location

Airport:

Trip Planner

Search our weather history database for the weather conditions in past years. The results will help you decide how hot, cold, wet, or windy it might be!

Date:

Astronomy

May. 24, 2013 Rise Set
Actual Time 6:23 AM CDT 8:26 PM CDT
Civil Twilight 5:55 AM CDT 8:54 PM CDT
Nautical Twilight 5:21 AM CDT 9:28 PM CDT
Astronomical Twilight 4:45 AM CDT 10:04 PM CDT
Moon 8:11 PM CDT (5/24) 5:54 AM CDT (5/24)
Length of Visible Light 14h 58m
Length of Day
14h 03m
Full, 100% of the Moon is Illuminated
May 24
Full
May 24
Full
May 31
Last Quarter
Jun 8
New
Jun 16
First Quarter

Hourly Weather History & Observations

Time (CDT) Temp. Heat Index Dew Point Humidity Pressure Visibility Wind Dir Wind Speed Gust Speed Precip Events Conditions
12:53 AM 78.1 °F - 68.0 °F 71% 30.00 in 10.0 mi East 5.8 mph - N/A   Overcast
1:53 AM 77.0 °F - 69.1 °F 76% 29.99 in 10.0 mi SE 6.9 mph - N/A   Overcast
2:53 AM 75.9 °F - 69.1 °F 79% 30.00 in 9.0 mi ESE 5.8 mph - N/A   Overcast
3:53 AM 73.9 °F - 68.0 °F 82% 30.01 in 9.0 mi ESE 5.8 mph - N/A   Overcast
4:53 AM 73.9 °F - 69.1 °F 85% 30.00 in 9.0 mi ESE 9.2 mph - N/A   Overcast
5:53 AM 73.9 °F - 69.1 °F 85% 30.01 in 9.0 mi SE 4.6 mph - N/A   Overcast
6:53 AM 75.0 °F - 70.0 °F 84% 30.03 in 7.0 mi East 6.9 mph - N/A   Mostly Cloudy
7:53 AM 75.9 °F - 71.1 °F 85% 30.08 in 7.0 mi ESE 6.9 mph - N/A   Mostly Cloudy
8:33 AM 77.0 °F - 71.1 °F 82% 30.11 in 8.0 mi SE 8.1 mph - N/A   Mostly Cloudy
8:53 AM 78.1 °F - 71.1 °F 79% 30.09 in 8.0 mi East 8.1 mph - N/A   Overcast
9:36 AM 79.0 °F - 71.1 °F 77% 30.12 in 10.0 mi SE 8.1 mph - N/A   Mostly Cloudy
9:53 AM 79.0 °F - 71.1 °F 77% 30.10 in 10.0 mi SE 9.2 mph - N/A   Mostly Cloudy
10:53 AM 81.0 °F 84.4 °F 70.0 °F 69% 30.11 in 10.0 mi SE 13.8 mph - N/A   Overcast
11:09 AM 80.1 °F 83.2 °F 70.0 °F 71% 30.14 in 10.0 mi SE 10.4 mph - N/A   Overcast
11:53 AM 82.0 °F 85.9 °F 70.0 °F 67% 30.12 in 10.0 mi SSE 11.5 mph - N/A   Overcast
12:53 PM 82.0 °F 85.9 °F 70.0 °F 67% 30.11 in 10.0 mi SE 12.7 mph - N/A   Overcast
1:53 PM 79.0 °F - 71.1 °F 77% 30.10 in 10.0 mi SSE 5.8 mph - 0.01 in   Overcast
2:53 PM 80.1 °F 83.6 °F 71.1 °F 74% 30.07 in 8.0 mi SE 8.1 mph - 0.00 in Rain Light Rain
3:53 PM 82.9 °F 86.5 °F 69.1 °F 63% 30.04 in 10.0 mi ESE 15.0 mph - 0.00 in   Overcast
4:53 PM 82.0 °F 84.9 °F 68.0 °F 62% 30.04 in 10.0 mi ESE 9.2 mph - N/A   Overcast
5:53 PM 82.0 °F 84.9 °F 68.0 °F 62% 30.03 in 10.0 mi SE 11.5 mph - N/A   Overcast
6:53 PM 80.1 °F 82.9 °F 69.1 °F 69% 30.04 in 10.0 mi SSE 6.9 mph - N/A   Overcast
7:53 PM 78.1 °F - 68.0 °F 71% 30.07 in 10.0 mi SW 18.4 mph 21.9 mph N/A   Overcast
8:01 PM 73.9 °F - 61.0 °F 64% 30.11 in 10.0 mi SW 25.3 mph 35.7 mph N/A Thunderstorm Thunderstorm
8:11 PM 73.0 °F - 61.0 °F 66% 30.11 in 10.0 mi SW 18.4 mph 34.5 mph N/A Thunderstorm Thunderstorm
8:21 PM 69.1 °F - 64.0 °F 84% 30.10 in 3.0 mi SW 24.2 mph 35.7 mph 0.04 in Rain , Thunderstorm Heavy Thunderstorms and Rain
8:53 PM 69.1 °F - 64.0 °F 84% 30.07 in 10.0 mi WSW 13.8 mph - 0.17 in Rain , Thunderstorm Light Thunderstorms and Rain
9:29 PM 69.1 °F - 64.9 °F 87% 30.11 in 10.0 mi SW 10.4 mph - 0.01 in Rain Light Rain
9:53 PM 69.1 °F - 64.9 °F 87% 30.10 in 10.0 mi SW 9.2 mph - 0.02 in Rain Light Rain
10:53 PM 69.1 °F - 64.9 °F 87% 30.15 in 10.0 mi South 10.4 mph - 0.00 in   Overcast
11:53 PM 68.0 °F - 64.0 °F 87% 30.17 in 10.0 mi SSE 5.8 mph - 0.01 in Rain Light Rain